Weather in Vatutine

Ukraine / Cherkassi District     49°00′37″N   31°02′45″E
temp.,
°C
wind,
m/s
gust,
m/s
humid.,
%
clouds,
%
prec.,
mm/h
press.,
hPa
HPBL,
m
20 january, thu
thu2023:00−5sw24965 0.0 102175
02:00−6sw3597100 0.0 102090
05:00−5ssw489583 0.0 1017192
08:00−5s489783 0.0 1016173
11:00−1ssw6127983 0.0 1014476
14:00+1ssw5106748 0.0 1011602
17:00−2ssw497994 0.0 1010170
20:00−2wsw3880100 0.0 1008196
21 january, fri
fri2123:00−1sw4109697 0.6 1007389
02:00−2w51292100 0.7 1006455
05:00−3w61186100 0.3 1007960
08:00−5w8158684 0.4 1008809
11:00−2w81373100 0.1 10091158
14:00−2wsw9147092 0.1 10091175
17:00−3w8158169 0.0 1009823
20:00−4w7138396 0.0 1010791
22 january, sat
sat2223:00−4wsw7148451 0.0 1010648
02:00−4wsw71388100 0.0 1009674
05:00−4w5108793 0.3 1009575
08:00−5wsw499098 0.3 1010441
11:00−3w6878100 0.1 1011821
14:00−2w5873100 0.3 10101094
17:00−3w488481 0.3 1012428
20:00−5w249749 0.4 1013131
23 january, sun
sun2323:00−6nw369629 0.0 1015152
02:00−6nw269757 0.0 1016173
05:00−6nnw479477 0.1 1018339
08:00−7nnw369677 0.1 1020243
11:00−6n3479100 0.0 1021613
14:00−5nne3375100 0.1 1021652
17:00−7nne369087 0.1 1022208
20:00−8nne479487 0.1 1024246
24 january, mon
mon2423:00−8n479588 0.0 1025239
02:00−8n489582 0.1 1026274
05:00−9n51094100 0.0 1026371
08:00−10n5119498 0.1 1027337
11:00−7n6108275 0.0 1027455
14:00−6nnw697894 0.0 1026568
17:00−7nnw61187100 0.0 1027471
20:00−8nnw6118997 0.0 1027489